Simultaneous Nadir Overpasses (SNOs) Predictions

Prediction of SNOs between AURA and LANDSAT-8 Satellite Orbit:

Table of predicted SNOs for the next 14.0 days since TLE Epoch: 8/15/2025
Index Date (AURA) Time (AURA) Lat,Lon (AURA) SZA (AURA ) Date (LANDSAT-8) Time (LANDSAT-8) Lat,Lon (LANDSAT-8) SZA (LANDSAT-8 ) Distance(km) Time Diff (sec)
1 08/20/2025 09:02:11 -73.23,-131.04 119.14 08/20/2025 09:01:05 -73.25,-133.65 119.15 83.87 66
2 08/20/2025 09:51:35 73.41, 36.25 61.05 08/20/2025 09:50:28 73.38, 34.25 61.00 63.85 67
3 08/20/2025 10:41:00 -73.74,-156.80 118.62 08/20/2025 10:39:48 -73.78,-157.26 118.59 14.78 72
4 08/20/2025 11:30:23 73.87, 10.58 61.52 08/20/2025 11:29:12 73.85, 10.55 61.50 2.21 71
5 08/20/2025 12:19:42 -73.89, 178.20 118.45 08/20/2025 12:18:39 -73.89, 178.26 118.45 1.89 63
6 08/20/2025 13:09:02 73.86, -14.07 61.54 08/20/2025 13:08:05 73.86, -14.17 61.53 3.04 57
7 08/20/2025 13:58:21 -73.89, 153.55 118.43 08/20/2025 13:57:32 -73.89, 153.55 118.43 0.66 49
8 08/20/2025 14:47:42 73.91, -38.84 61.61 08/20/2025 14:46:57 73.91, -38.76 61.61 2.39 45
9 08/20/2025 15:37:00 -73.88, 128.90 118.41 08/20/2025 15:36:25 -73.90, 128.84 118.40 2.61 35
10 08/20/2025 16:26:21 73.91, -63.49 61.63 08/20/2025 16:25:50 73.92, -63.47 61.64 1.28 31
11 08/20/2025 17:15:40 -73.93, 104.14 118.34 08/20/2025 17:15:18 -73.90, 104.13 118.37 2.97 22
12 08/20/2025 18:05:00 73.90, -88.14 61.65 08/20/2025 18:04:43 73.92, -88.18 61.66 2.63 17
13 08/20/2025 18:54:19 -73.92, 79.49 118.33 08/20/2025 18:54:11 -73.90, 79.42 118.34 2.87 8
14 08/20/2025 19:43:40 73.95,-112.91 61.71 08/20/2025 19:43:36 73.92,-112.90 61.69 2.52 4
15 08/20/2025 20:32:59 -73.97, 54.72 118.26 08/20/2025 20:33:03 -73.96, 54.82 118.26 3.25 4
16 08/20/2025 21:22:19 73.94,-137.56 61.73 08/20/2025 21:22:29 73.93,-137.61 61.72 2.14 10
17 08/20/2025 22:11:38 -73.96, 30.07 118.24 08/20/2025 22:11:56 -73.96, 30.11 118.24 1.27 18
18 08/20/2025 23:00:58 73.94,-162.21 61.75 08/20/2025 23:01:22 73.93,-162.32 61.75 3.48 24
19 08/20/2025 23:50:17 -73.96, 5.42 118.22 08/20/2025 23:50:49 -73.97, 5.40 118.21 1.40 32
20 08/21/2025 00:39:38 73.98, 173.03 61.82 08/21/2025 00:40:14 73.99, 173.09 61.83 1.97 36
21 08/21/2025 01:28:56 -73.95, -19.23 118.20 08/21/2025 01:29:42 -73.97, -19.31 118.18 3.41 46
22 08/21/2025 02:18:17 73.98, 148.38 61.84 08/21/2025 02:19:07 73.99, 148.38 61.85 1.62 50
23 08/21/2025 03:07:36 -74.00, -44.00 118.14 08/21/2025 03:08:35 -73.98, -44.02 118.15 2.53 59
24 08/21/2025 03:56:56 73.97, 123.73 61.85 08/21/2025 03:58:00 74.00, 123.66 61.88 3.25 64
25 08/21/2025 04:46:16 -74.05, -68.77 118.07 08/21/2025 04:47:27 -74.03, -68.62 118.07 4.74 71
26 08/21/2025 05:35:40 74.23, 98.47 62.13 08/21/2025 05:36:50 74.16, 99.31 62.07 26.43 70
27 08/21/2025 06:25:05 -74.55, -94.64 117.54 08/21/2025 06:26:11 -74.50, -92.24 117.57 71.41 66
28 08/21/2025 07:14:29 74.73, 72.57 62.65 08/21/2025 07:15:33 74.67, 75.83 62.63 95.98 64



Historial Predications of SNOs between AURA and LANDSAT-8
